Time,TemperatureF,DewpointF,PressureIn,WindDirection,WindDirectionDegrees,WindSpeedMPH,WindSpeedGustMPH,Humidity,HourlyPrecipIn,Conditions,Clouds,dailyrainin,SoftwareType,DateUTC
2013-03-19 00:03:00,29.0,23.0,30.13,ESE,113,0.0,0.0,78,0.00,,,0.00,,2013-03-19 04:03:00,
2013-03-19 00:13:00,29.0,23.0,30.13,ESE,113,0.0,0.0,78,0.00,,,0.00,,2013-03-19 04:13:00,
2013-03-19 00:23:00,29.0,23.0,30.11,ESE,113,3.0,3.0,79,0.00,,,0.00,,2013-03-19 04:23:00,
2013-03-19 00:33:00,29.0,24.0,30.11,ENE,68,0.0,7.0,80,0.00,,,0.00,,2013-03-19 04:33:00,
2013-03-19 00:43:00,29.0,24.0,30.11,ENE,68,0.0,7.0,80,0.00,,,0.00,,2013-03-19 04:43:00,
2013-03-19 00:53:00,29.0,24.0,30.08,NE,45,0.0,5.0,80,0.00,,,0.00,,2013-03-19 04:53:00,
2013-03-19 01:02:00,29.0,24.0,30.08,East,90,0.0,10.0,80,0.00,,,0.00,,2013-03-19 05:02:00,
2013-03-19 01:12:00,29.0,24.0,30.08,East,90,0.0,10.0,80,0.00,,,0.00,,2013-03-19 05:12:00,
2013-03-19 01:22:00,29.0,24.0,30.06,ESE,113,0.0,6.0,81,0.00,,,0.00,,2013-03-19 05:22:00,
2013-03-19 01:32:00,29.0,24.0,30.06,East,90,0.0,5.0,81,0.00,,,0.00,,2013-03-19 05:32:00,
2013-03-19 01:43:00,29.0,24.0,30.06,East,90,0.0,5.0,81,0.00,,,0.00,,2013-03-19 05:43:00,
2013-03-19 01:52:00,29.0,24.0,30.05,SE,135,0.0,0.0,82,0.00,,,0.00,,2013-03-19 05:52:00,
2013-03-19 02:02:00,29.0,24.0,30.04,ESE,113,0.0,0.0,82,0.00,,,0.00,,2013-03-19 06:02:00,
2013-03-19 02:12:00,29.0,24.0,30.04,ESE,113,0.0,0.0,82,0.00,,,0.00,,2013-03-19 06:12:00,
2013-03-19 02:22:00,29.0,25.0,30.03,SE,139,6.0,9.0,83,0.00,,,0.00,,2013-03-19 06:22:00,
2013-03-19 02:32:00,29.0,25.0,30.02,ESE,113,4.0,4.0,83,0.00,,,0.00,,2013-03-19 06:32:00,
2013-03-19 02:42:00,29.0,25.0,30.02,ESE,113,4.0,4.0,83,0.00,,,0.00,,2013-03-19 06:42:00,
2013-03-19 02:52:00,30.0,25.0,30.00,SSE,155,1.0,4.0,83,0.00,,,0.00,,2013-03-19 06:52:00,
2013-03-19 03:02:00,30.0,25.0,30.00,SSE,158,9.0,9.0,83,0.00,,,0.00,,2013-03-19 07:02:00,
2013-03-19 03:12:00,30.0,25.0,30.00,SSE,158,9.0,9.0,83,0.00,,,0.00,,2013-03-19 07:12:00,
2013-03-19 03:22:00,30.0,25.0,29.98,NE,45,4.0,4.0,83,0.00,,,0.00,,2013-03-19 07:22:00,
2013-03-19 03:32:00,30.0,25.0,29.98,ENE,68,0.0,6.0,83,0.00,,,0.00,,2013-03-19 07:32:00,
2013-03-19 03:42:00,30.0,25.0,29.98,ENE,68,0.0,6.0,83,0.00,,,0.00,,2013-03-19 07:42:00,
2013-03-19 03:53:00,30.0,25.0,29.96,ENE,68,0.0,0.0,83,0.00,,,0.00,,2013-03-19 07:53:00,
2013-03-19 04:03:00,30.0,25.0,29.93,ENE,68,0.0,0.0,83,0.00,,,0.00,,2013-03-19 08:03:00,
2013-03-19 04:12:00,30.0,25.0,29.93,ENE,68,0.0,0.0,83,0.00,,,0.00,,2013-03-19 08:12:00,
2013-03-19 04:22:00,29.0,25.0,29.94,SE,135,0.0,0.0,84,0.00,,,0.00,,2013-03-19 08:22:00,
2013-03-19 04:32:00,29.0,25.0,29.94,NE,45,0.0,0.0,84,0.00,,,0.00,,2013-03-19 08:32:00,
2013-03-19 04:42:00,29.0,25.0,29.94,NE,45,0.0,0.0,84,0.00,,,0.00,,2013-03-19 08:42:00,
2013-03-19 04:52:00,29.0,25.0,29.94,NE,45,0.0,0.0,84,0.00,,,0.00,,2013-03-19 08:52:00,
2013-03-19 05:02:00,29.0,25.0,29.94,NE,45,0.0,0.0,84,0.00,,,0.00,,2013-03-19 09:02:00,
2013-03-19 05:12:00,29.0,25.0,29.94,NE,45,0.0,0.0,84,0.00,,,0.00,,2013-03-19 09:12:00,
2013-03-19 05:22:00,29.0,25.0,29.93,NE,45,0.0,0.0,84,0.00,,,0.00,,2013-03-19 09:22:00,
2013-03-19 05:32:00,29.0,25.0,29.92,NE,45,0.0,0.0,84,0.00,,,0.00,,2013-03-19 09:32:00,
2013-03-19 05:43:00,29.0,25.0,29.92,NE,45,0.0,0.0,84,0.00,,,0.00,,2013-03-19 09:43:00,
2013-03-19 05:52:00,29.0,25.0,29.92,NE,45,0.0,0.0,85,0.00,,,0.00,,2013-03-19 09:52:00,
2013-03-19 06:04:00,29.0,25.0,29.91,ESE,113,0.0,0.0,85,0.00,,,0.00,,2013-03-19 10:04:00,
2013-03-19 06:13:00,29.0,25.0,29.91,ESE,113,0.0,0.0,85,0.00,,,0.00,,2013-03-19 10:13:00,
2013-03-19 06:23:00,29.0,25.0,29.90,SE,135,0.0,0.0,85,0.00,,,0.00,,2013-03-19 10:23:00,
2013-03-19 06:33:00,29.0,25.0,29.89,NE,45,0.0,0.0,85,0.00,,,0.00,,2013-03-19 10:33:00,
2013-03-19 06:42:00,29.0,25.0,29.89,NE,45,0.0,0.0,85,0.00,,,0.00,,2013-03-19 10:42:00,
2013-03-19 06:52:00,30.0,26.0,29.89,NE,45,0.0,0.0,85,0.00,,,0.00,,2013-03-19 10:52:00,
2013-03-19 07:03:00,30.0,26.0,29.88,NE,45,0.0,0.0,86,0.00,,,0.00,,2013-03-19 11:03:00,
2013-03-19 07:12:00,30.0,26.0,29.88,NE,45,0.0,0.0,86,0.00,,,0.00,,2013-03-19 11:12:00,
2013-03-19 07:22:00,30.0,26.0,29.88,ESE,113,0.0,0.0,86,0.00,,,0.00,,2013-03-19 11:22:00,
2013-03-19 07:33:00,30.0,26.0,29.87,ENE,68,0.0,0.0,86,0.00,,,0.00,,2013-03-19 11:33:00,
2013-03-19 07:43:00,30.0,26.0,29.87,ENE,68,0.0,0.0,86,0.00,,,0.00,,2013-03-19 11:43:00,
2013-03-19 07:52:00,30.0,26.0,29.85,NNE,23,0.0,0.0,86,0.00,,,0.00,,2013-03-19 11:52:00,
2013-03-19 08:02:00,31.0,28.0,29.84,East,90,0.0,0.0,87,0.00,,,0.00,,2013-03-19 12:02:00,
2013-03-19 08:12:00,31.0,28.0,29.83,NE,45,0.0,0.0,87,0.00,,,0.00,,2013-03-19 12:12:00,
2013-03-19 08:22:00,31.0,28.0,29.83,NE,45,0.0,0.0,87,0.00,,,0.00,,2013-03-19 12:22:00,
2013-03-19 08:33:00,32.0,29.0,29.81,NNE,23,0.0,0.0,87,0.00,,,0.00,,2013-03-19 12:33:00,
2013-03-19 08:42:00,32.0,29.0,29.81,NNE,23,0.0,0.0,87,0.00,,,0.00,,2013-03-19 12:42:00,
2013-03-19 08:52:00,32.0,29.0,29.80,SE,135,0.0,0.0,87,0.00,,,0.00,,2013-03-19 12:52:00,
2013-03-19 09:02:00,32.0,29.0,29.80,NNE,23,0.0,0.0,87,0.00,,,0.00,,2013-03-19 13:02:00,
2013-03-19 09:12:00,32.0,29.0,29.80,NNE,23,0.0,0.0,87,0.00,,,0.00,,2013-03-19 13:12:00,
2013-03-19 09:22:00,32.0,29.0,29.80,NE,45,0.0,0.0,88,0.00,,,0.00,,2013-03-19 13:22:00,
2013-03-19 09:33:00,32.0,29.0,29.78,NNE,23,0.0,0.0,88,0.00,,,0.00,,2013-03-19 13:33:00,
2013-03-19 09:42:00,32.0,29.0,29.78,NNE,23,0.0,0.0,88,0.00,,,0.00,,2013-03-19 13:42:00,
2013-03-19 09:52:00,33.0,30.0,29.76,NE,45,0.0,0.0,88,0.00,,,0.00,,2013-03-19 13:52:00,
2013-03-19 10:02:00,33.0,30.0,29.75,SSE,158,0.0,0.0,88,0.00,,,0.00,,2013-03-19 14:02:00,
2013-03-19 10:12:00,33.0,30.0,29.75,SSE,158,0.0,0.0,88,0.00,,,0.00,,2013-03-19 14:12:00,
2013-03-19 10:22:00,33.0,30.0,29.75,NE,45,0.0,0.0,88,0.00,,,0.00,,2013-03-19 14:22:00,
2013-03-19 10:32:00,34.0,31.0,29.76,NE,45,0.0,0.0,87,0.00,,,0.00,,2013-03-19 14:32:00,
2013-03-19 10:42:00,34.0,31.0,29.76,NE,45,0.0,0.0,87,0.00,,,0.00,,2013-03-19 14:42:00,
2013-03-19 10:52:00,34.0,31.0,29.76,NE,45,0.0,0.0,87,0.00,,,0.00,,2013-03-19 14:52:00,
2013-03-19 11:02:00,34.0,31.0,29.75,NE,36,4.0,9.0,87,0.00,,,0.00,,2013-03-19 15:02:00,
2013-03-19 11:12:00,34.0,31.0,29.75,NE,36,4.0,9.0,87,0.00,,,0.00,,2013-03-19 15:12:00,
2013-03-19 11:22:00,34.0,31.0,29.74,NE,45,7.0,9.0,87,0.00,,,0.00,,2013-03-19 15:22:00,
2013-03-19 11:34:00,35.0,32.0,29.71,ENE,61,2.0,6.0,87,0.00,,,0.00,,2013-03-19 15:34:00,
2013-03-19 11:43:00,35.0,32.0,29.71,ENE,61,2.0,6.0,87,0.00,,,0.00,,2013-03-19 15:43:00,
2013-03-19 11:53:00,35.0,32.0,29.72,ENE,62,2.0,8.0,87,0.00,,,0.00,,2013-03-19 15:53:00,
2013-03-19 12:04:00,35.0,31.0,29.70,NE,45,3.0,8.0,86,0.00,,,0.00,,2013-03-19 16:04:00,
2013-03-19 12:13:00,35.0,31.0,29.70,NE,45,3.0,8.0,86,0.00,,,0.00,,2013-03-19 16:13:00,
2013-03-19 12:24:00,36.0,32.0,29.70,NE,45,4.0,8.0,86,0.00,,,0.00,,2013-03-19 16:24:00,
2013-03-19 12:34:00,36.0,32.0,29.68,NE,45,6.0,7.0,86,0.00,,,0.00,,2013-03-19 16:34:00,
2013-03-19 12:44:00,36.0,32.0,29.68,NE,45,6.0,7.0,86,0.00,,,0.00,,2013-03-19 16:44:00,
2013-03-19 12:54:00,36.0,32.0,29.67,NE,45,7.0,7.0,86,0.00,,,0.00,,2013-03-19 16:54:00,
2013-03-19 13:03:00,37.0,33.0,29.64,ENE,59,4.0,6.0,86,0.00,,,0.00,,2013-03-19 17:03:00,
2013-03-19 13:13:00,37.0,33.0,29.63,NE,45,2.0,12.0,86,0.00,,,0.00,,2013-03-19 17:13:00,
2013-03-19 13:23:00,37.0,33.0,29.63,NE,45,2.0,12.0,86,0.00,,,0.00,,2013-03-19 17:23:00,
2013-03-19 13:34:00,36.0,32.0,29.65,NE,45,5.0,10.0,86,0.00,,,0.00,,2013-03-19 17:34:00,
2013-03-19 13:44:00,36.0,32.0,29.65,NE,45,5.0,10.0,86,0.00,,,0.00,,2013-03-19 17:44:00,
2013-03-19 13:52:00,36.0,32.0,29.64,ENE,57,2.0,12.0,86,0.00,,,0.00,,2013-03-19 17:52:00,
2013-03-19 14:03:00,36.0,33.0,29.63,NE,45,4.0,6.0,87,0.00,,,0.00,,2013-03-19 18:03:00,
2013-03-19 14:13:00,36.0,33.0,29.63,NE,45,4.0,6.0,87,0.00,,,0.00,,2013-03-19 18:13:00,
2013-03-19 14:23:00,36.0,33.0,29.68,NNW,345,6.0,10.0,87,0.00,,,0.00,,2013-03-19 18:23:00,
2013-03-19 14:33:00,36.0,33.0,29.65,NE,39,4.0,8.0,88,0.00,,,0.00,,2013-03-19 18:33:00,
2013-03-19 14:43:00,36.0,33.0,29.65,NE,39,4.0,8.0,88,0.00,,,0.00,,2013-03-19 18:43:00,
2013-03-19 14:53:00,36.0,33.0,29.64,NE,40,7.0,11.0,88,0.00,,,0.00,,2013-03-19 18:53:00,
2013-03-19 15:02:00,36.0,33.0,29.65,NNE,28,4.0,12.0,88,0.00,,,0.00,,2013-03-19 19:02:00,
2013-03-19 15:12:00,36.0,33.0,29.65,NNE,28,4.0,12.0,88,0.00,,,0.00,,2013-03-19 19:12:00,
2013-03-19 15:22:00,35.0,32.0,29.61,NE,45,11.0,13.0,88,0.00,,,0.00,,2013-03-19 19:22:00,
2013-03-19 15:33:00,35.0,32.0,29.60,NE,45,4.0,11.0,88,0.00,,,0.00,,2013-03-19 19:33:00,
2013-03-19 15:42:00,35.0,32.0,29.60,NE,45,4.0,11.0,88,0.00,,,0.00,,2013-03-19 19:42:00,
2013-03-19 15:53:00,38.0,35.0,29.59,NE,45,8.0,13.0,89,0.00,,,0.00,,2013-03-19 19:53:00,
2013-03-19 16:03:00,40.0,36.0,29.57,NNW,348,7.0,13.0,87,0.00,,,0.00,,2013-03-19 20:03:00,
2013-03-19 16:12:00,43.0,38.0,29.57,NE,45,8.0,11.0,81,0.00,,,0.00,,2013-03-19 20:12:00,
2013-03-19 16:22:00,43.0,38.0,29.57,NE,45,8.0,11.0,81,0.00,,,0.00,,2013-03-19 20:22:00,
2013-03-19 16:33:00,42.0,36.0,29.57,NE,43,2.0,14.0,80,0.00,,,0.00,,2013-03-19 20:33:00,
2013-03-19 16:43:00,42.0,36.0,29.57,NE,43,2.0,14.0,80,0.00,,,0.00,,2013-03-19 20:43:00,
2013-03-19 16:53:00,40.0,34.0,29.57,NE,45,3.0,10.0,80,0.00,,,0.00,,2013-03-19 20:53:00,
2013-03-19 17:02:00,39.0,33.0,29.58,NE,45,5.0,13.0,80,0.00,,,0.00,,2013-03-19 21:02:00,
2013-03-19 17:12:00,38.0,33.0,29.58,NE,49,7.0,10.0,81,0.00,,,0.00,,2013-03-19 21:12:00,
2013-03-19 17:23:00,38.0,33.0,29.58,NE,49,7.0,10.0,81,0.00,,,0.00,,2013-03-19 21:23:00,
2013-03-19 17:34:00,37.0,32.0,29.58,NE,43,3.0,7.0,82,0.00,,,0.00,,2013-03-19 21:34:00,
2013-03-19 17:43:00,37.0,32.0,29.58,NE,43,3.0,7.0,82,0.00,,,0.00,,2013-03-19 21:43:00,
2013-03-19 17:53:00,37.0,32.0,29.59,NE,45,0.0,0.0,82,0.00,,,0.00,,2013-03-19 21:53:00,
2013-03-19 18:03:00,36.0,31.0,29.60,North,0,1.0,6.0,82,0.00,,,0.00,,2013-03-19 22:03:00,
2013-03-19 18:13:00,36.0,31.0,29.60,North,0,1.0,6.0,82,0.00,,,0.00,,2013-03-19 22:13:00,
2013-03-19 18:23:00,36.0,31.0,29.61,NE,34,2.0,5.0,83,0.00,,,0.00,,2013-03-19 22:23:00,
2013-03-19 18:33:00,35.0,31.0,29.62,North,0,0.0,7.0,84,0.00,,,0.00,,2013-03-19 22:33:00,
2013-03-19 18:43:00,35.0,31.0,29.61,NE,45,1.0,5.0,85,0.00,,,0.00,,2013-03-19 22:43:00,
2013-03-19 18:53:00,35.0,31.0,29.61,NE,45,1.0,5.0,85,0.00,,,0.00,,2013-03-19 22:53:00,
2013-03-19 19:03:00,34.0,30.0,29.62,NNE,23,1.0,3.0,85,0.00,,,0.00,,2013-03-19 23:03:00,
2013-03-19 19:12:00,34.0,30.0,29.63,NNE,23,2.0,4.0,86,0.00,,,0.00,,2013-03-19 23:12:00,
2013-03-19 19:22:00,34.0,30.0,29.63,NNE,23,2.0,4.0,86,0.00,,,0.00,,2013-03-19 23:22:00,
2013-03-19 19:32:00,34.0,30.0,29.62,NE,45,0.0,0.0,86,0.00,,,0.00,,2013-03-19 23:32:00,
2013-03-19 19:42:00,34.0,30.0,29.62,NE,45,0.0,0.0,86,0.00,,,0.00,,2013-03-19 23:42:00,
2013-03-19 19:53:00,34.0,31.0,29.63,NNW,338,0.0,3.0,87,0.00,,,0.00,,2013-03-19 23:53:00,
2013-03-19 20:03:00,33.0,30.0,29.62,NE,45,0.0,0.0,87,0.00,,,0.00,,2013-03-20 00:03:00,
2013-03-19 20:13:00,33.0,30.0,29.62,NE,45,0.0,0.0,87,0.00,,,0.00,,2013-03-20 00:13:00,
2013-03-19 20:22:00,33.0,30.0,29.65,West,270,0.0,0.0,87,0.00,,,0.00,,2013-03-20 00:22:00,
2013-03-19 20:33:00,33.0,30.0,29.66,WNW,293,0.0,0.0,87,0.00,,,0.00,,2013-03-20 00:33:00,
2013-03-19 20:42:00,33.0,30.0,29.66,WNW,293,0.0,0.0,87,0.00,,,0.00,,2013-03-20 00:42:00,
2013-03-19 20:52:00,33.0,30.0,29.67,North,0,0.0,0.0,87,0.00,,,0.00,,2013-03-20 00:52:00,
2013-03-19 21:03:00,33.0,30.0,29.67,NW,315,0.0,0.0,87,0.00,,,0.00,,2013-03-20 01:03:00,
2013-03-19 21:12:00,33.0,30.0,29.68,NW,315,0.0,0.0,88,0.00,,,0.00,,2013-03-20 01:12:00,
2013-03-19 21:22:00,33.0,30.0,29.68,NW,315,0.0,0.0,88,0.00,,,0.00,,2013-03-20 01:22:00,
2013-03-19 21:32:00,33.0,30.0,29.68,NW,315,0.0,3.0,88,0.00,,,0.00,,2013-03-20 01:32:00,
2013-03-19 21:42:00,33.0,30.0,29.68,NW,315,0.0,3.0,88,0.00,,,0.00,,2013-03-20 01:42:00,
2013-03-19 21:53:00,32.0,29.0,29.67,NNW,338,0.0,0.0,88,0.00,,,0.00,,2013-03-20 01:53:00,
2013-03-19 22:02:00,32.0,29.0,29.67,NNW,338,0.0,0.0,88,0.00,,,0.00,,2013-03-20 02:02:00,
2013-03-19 22:12:00,32.0,29.0,29.67,NNW,338,0.0,0.0,88,0.00,,,0.00,,2013-03-20 02:12:00,
2013-03-19 22:22:00,31.0,28.0,29.67,NNW,338,0.0,0.0,88,0.00,,,0.00,,2013-03-20 02:22:00,
2013-03-19 22:32:00,31.0,28.0,29.67,NNW,338,0.0,0.0,88,0.00,,,0.00,,2013-03-20 02:32:00,
2013-03-19 22:42:00,31.0,28.0,29.67,NNW,338,0.0,0.0,88,0.00,,,0.00,,2013-03-20 02:42:00,
2013-03-19 22:53:00,31.0,28.0,29.67,NNW,338,0.0,0.0,88,0.00,,,0.00,,2013-03-20 02:53:00,
2013-03-19 23:02:00,31.0,28.0,29.68,NNW,338,0.0,0.0,88,0.00,,,0.00,,2013-03-20 03:02:00,
2013-03-19 23:12:00,31.0,28.0,29.67,NNW,338,0.0,0.0,88,0.00,,,0.00,,2013-03-20 03:12:00,
2013-03-19 23:22:00,31.0,28.0,29.67,NNW,338,0.0,0.0,88,0.00,,,0.00,,2013-03-20 03:22:00,
2013-03-19 23:34:00,31.0,28.0,29.69,NNW,338,0.0,0.0,88,0.00,,,0.00,,2013-03-20 03:34:00,
2013-03-19 23:42:00,31.0,28.0,29.69,NNW,338,0.0,0.0,88,0.00,,,0.00,,2013-03-20 03:42:00,
2013-03-19 23:53:00,31.0,28.0,29.69,NNW,338,0.0,0.0,88,0.00,,,0.00,,2013-03-20 03:53:00,